Ainsworth, NE

1:47 AM CST on November 19, 2017 (GMT -0600)
Ainsworth Municipal

Weather History for KANW - February, 2013

Change the Weather History Date:

Tuesday, February 5, 2013

  Actual Average Record
Temperature  
Mean Temperature 42 °F -  
Max Temperature 49 °F 36 °F 73 °F (1997)
Min Temperature 35 °F 16 °F -9 °F (2014)
Degree Days  
Heating Degree Days 23    
Moisture  
Dew Point 24 °F    
Average Humidity 53    
Maximum Humidity 70    
Minimum Humidity 32    
Precipitation  
Precipitation 0.00 in - - ()
Sea Level Pressure  
Sea Level Pressure 29.92 in    
Wind  
Wind Speed 10 mph (WNW)    
Max Wind Speed 17 mph    
Max Gust Speed 22 mph    
Visibility 10 miles    
Events      
Averages and records for this station are not official NWS values.
T = Trace of Precipitation, MM = Missing Value Source: NWS Daily Summary

Daily Weather History Graph

Daily Weather History Graph

Search for Another Location

Airport or City:

Trip Planner

Search our weather history database for the weather conditions in past years. The results will help you decide how hot, cold, wet, or windy it might be!

Date:

Astronomy

Feb. 05, 2013 Rise Set
Actual Time 7:49 AM CST 5:59 PM CST
Civil Twilight 7:19 AM CST 6:28 PM CST
Nautical Twilight 6:46 AM CST 7:02 PM CST
Astronomical Twilight 6:13 AM CST 7:35 PM CST
Moon 3:35 AM CST (2/5) 1:15 PM CST (2/5)
Length of Visible Light 11h 09m
Length of Day
10h 10m
Waning Crescent, 26% of the Moon is Illuminated
Feb 5
Waning Crescent
Feb 10
New
Feb 17
First Quarter
Feb 25
Full
Mar 4
Last Quarter

Hourly Weather History & Observations

Time (CST) Temp. Windchill Dew Point Humidity Pressure Visibility Wind Dir Wind Speed Gust Speed Precip Events Conditions
12:15 AM 36.3 °F 30.1 °F 26.4 °F 67% 29.81 in 10.0 mi West 8.1 mph - N/A   Scattered Clouds
12:35 AM 35.8 °F 28.8 °F 26.2 °F 68% 29.81 in 10.0 mi WSW 9.2 mph - N/A   Scattered Clouds
12:55 AM 35.4 °F 28.4 °F 26.6 °F 70% 29.80 in 10.0 mi West 9.2 mph - N/A   Mostly Cloudy
1:15 AM 36.9 °F 29.1 °F 27.0 °F 67% 29.80 in 10.0 mi West 11.5 mph - N/A   Overcast
1:35 AM 37.6 °F 30.5 °F 27.1 °F 66% 29.80 in 10.0 mi West 10.4 mph - N/A   Overcast
1:55 AM 37.9 °F 32.1 °F 27.1 °F 65% 29.80 in 10.0 mi West 8.1 mph - N/A   Overcast
2:15 AM 37.8 °F 31.3 °F 27.3 °F 66% 29.81 in 10.0 mi West 9.2 mph - N/A   Overcast
2:35 AM 38.1 °F 32.3 °F 27.1 °F 65% 29.82 in 10.0 mi West 8.1 mph - N/A   Overcast
2:55 AM 38.3 °F 32.5 °F 27.0 °F 64% 29.82 in 10.0 mi West 8.1 mph - N/A   Overcast
3:15 AM 38.1 °F 31.7 °F 26.6 °F 63% 29.82 in 10.0 mi West 9.2 mph - N/A   Overcast
3:35 AM 38.5 °F 31.6 °F 26.4 °F 62% 29.82 in 10.0 mi West 10.4 mph - N/A   Overcast
3:55 AM 38.7 °F 32.4 °F 26.4 °F 61% 29.82 in 10.0 mi West 9.2 mph - N/A   Overcast
4:15 AM 38.8 °F 32.6 °F 25.7 °F 59% 29.83 in 10.0 mi WNW 9.2 mph - N/A   Overcast
4:35 AM 39.0 °F 32.3 °F 25.3 °F 58% 29.83 in 10.0 mi West 10.4 mph - N/A   Mostly Cloudy
4:55 AM 37.6 °F 30.5 °F 25.2 °F 61% 29.83 in 10.0 mi West 10.4 mph - N/A   Scattered Clouds
5:15 AM 37.8 °F 29.8 °F 25.3 °F 61% 29.85 in 10.0 mi West 12.7 mph - N/A   Scattered Clouds
5:35 AM 38.3 °F 31.9 °F 25.7 °F 61% 29.84 in 10.0 mi West 9.2 mph - N/A   Overcast
5:55 AM 39.2 °F 31.6 °F 26.6 °F 61% 29.85 in 10.0 mi West 12.7 mph - N/A   Overcast
6:15 AM 38.1 °F 32.3 °F 26.1 °F 62% 29.87 in 10.0 mi West 8.1 mph - N/A   Overcast
6:35 AM 37.4 °F 30.8 °F 26.6 °F 65% 29.87 in 10.0 mi WNW 9.2 mph - N/A   Overcast
6:55 AM 39.4 °F 32.7 °F 27.0 °F 61% 29.89 in 10.0 mi NW 10.4 mph - N/A   Overcast
7:15 AM 39.2 °F 32.0 °F 27.1 °F 62% 29.90 in 10.0 mi NW 11.5 mph - N/A   Overcast
7:35 AM 37.2 °F 29.6 °F 27.0 °F 66% 29.91 in 10.0 mi NNW 11.5 mph - N/A   Scattered Clouds
7:55 AM 37.9 °F 28.9 °F 27.5 °F 66% 29.91 in 10.0 mi NNW 16.1 mph - N/A   Clear
8:15 AM 38.5 °F 29.2 °F 27.5 °F 65% 29.92 in 10.0 mi NNW 17.3 mph - N/A   Clear
8:35 AM 38.3 °F 30.5 °F 27.7 °F 66% 29.95 in 10.0 mi NNW 12.7 mph 18.4 mph N/A   Clear
8:55 AM 39.4 °F 31.4 °F 27.7 °F 63% 29.95 in 10.0 mi NNW 13.8 mph - N/A   Mostly Cloudy
9:15 AM 39.4 °F 31.1 °F 27.1 °F 62% 29.97 in 10.0 mi NNW 15.0 mph 21.9 mph N/A   Overcast
9:35 AM 39.6 °F 30.6 °F 26.6 °F 60% 29.98 in 10.0 mi NNW 17.3 mph 21.9 mph N/A   Overcast
9:55 AM 39.4 °F 31.1 °F 26.1 °F 59% 29.98 in 10.0 mi NNW 15.0 mph 21.9 mph N/A   Overcast
10:15 AM 40.6 °F 33.4 °F 26.2 °F 57% 30.00 in 10.0 mi NNW 12.7 mph - N/A   Overcast
10:35 AM 41.4 °F 33.6 °F 23.4 °F 49% 30.01 in 10.0 mi NW 15.0 mph - N/A   Scattered Clouds
10:55 AM 41.9 °F 34.6 °F 21.4 °F 44% 30.01 in 10.0 mi NNW 13.8 mph - N/A   Clear
11:15 AM 43.0 °F 36.0 °F 21.0 °F 42% 30.01 in 10.0 mi NNW 13.8 mph - N/A   Clear
11:35 AM 43.7 °F 36.6 °F 20.8 °F 40% 30.01 in 10.0 mi NNW 15.0 mph - N/A   Clear
11:55 AM 43.7 °F 37.3 °F 20.8 °F 40% 30.02 in 10.0 mi NW 12.7 mph - N/A   Clear
12:15 PM 44.6 °F 38.1 °F 20.8 °F 39% 30.01 in 10.0 mi NW 13.8 mph 17.3 mph N/A   Clear
12:35 PM 45.0 °F 38.9 °F 20.7 °F 38% 30.01 in 10.0 mi NW 12.7 mph 17.3 mph N/A   Clear
12:55 PM 45.0 °F 41.2 °F 20.1 °F 37% 30.00 in 10.0 mi NW 6.9 mph - N/A   Clear
1:15 PM 46.2 °F 41.7 °F 20.1 °F 35% 29.99 in 10.0 mi NNW 9.2 mph 17.3 mph N/A   Clear
1:35 PM 46.8 °F - 20.1 °F 35% 29.99 in 10.0 mi WNW 11.5 mph - N/A   Clear
1:55 PM 47.1 °F - 20.3 °F 35% 29.98 in 10.0 mi NW 11.5 mph - N/A   Clear
2:15 PM 47.5 °F - 20.3 °F 34% 29.98 in 10.0 mi NW 9.2 mph - N/A   Clear
2:35 PM 47.7 °F - 20.1 °F 34% 29.97 in 10.0 mi NW 8.1 mph - N/A   Clear
2:55 PM 48.2 °F - 20.1 °F 33% 29.96 in 10.0 mi NW 6.9 mph - N/A   Clear
3:15 PM 48.6 °F - 19.9 °F 32% 29.96 in 10.0 mi WNW 8.1 mph - N/A   Clear
3:35 PM 48.7 °F - 19.9 °F 32% 29.96 in 10.0 mi WNW 8.1 mph - N/A   Clear
3:55 PM 49.1 °F - 20.1 °F 32% 29.96 in 10.0 mi NW 6.9 mph - N/A   Clear
4:15 PM 48.9 °F - 21.0 °F 33% 29.95 in 10.0 mi West 4.6 mph - N/A   Clear
4:35 PM 48.7 °F - 21.2 °F 34% 29.95 in 10.0 mi NW 3.5 mph - N/A   Clear
4:55 PM 48.4 °F - 21.6 °F 35% 29.95 in 10.0 mi NNW 4.6 mph - N/A   Clear
5:15 PM 46.2 °F 45.0 °F 22.1 °F 39% 29.94 in 10.0 mi North 3.5 mph - N/A   Clear
5:35 PM 45.7 °F - 22.1 °F 39% 29.94 in 10.0 mi Calm Calm - N/A   Clear
5:55 PM 41.2 °F - 22.6 °F 48% 29.94 in 10.0 mi Calm Calm - N/A   Clear
6:15 PM 40.6 °F 38.6 °F 23.0 °F 49% 29.94 in 10.0 mi East 3.5 mph - N/A   Clear
6:35 PM 39.4 °F 35.2 °F 24.4 °F 55% 29.94 in 10.0 mi ESE 5.8 mph - N/A   Scattered Clouds
6:55 PM 39.4 °F 34.5 °F 24.3 °F 55% 29.94 in 10.0 mi ESE 6.9 mph - N/A   Scattered Clouds
7:15 PM 39.6 °F 34.7 °F 24.8 °F 56% 29.94 in 10.0 mi ESE 6.9 mph - N/A   Scattered Clouds
7:35 PM 39.2 °F 35.0 °F 24.8 °F 56% 29.94 in 10.0 mi ESE 5.8 mph - N/A   Scattered Clouds
7:55 PM 39.2 °F 35.0 °F 24.8 °F 56% 29.93 in 10.0 mi SE 5.8 mph - N/A   Mostly Cloudy
8:15 PM 39.2 °F 34.2 °F 24.8 °F 56% 29.94 in 10.0 mi SE 6.9 mph - N/A   Overcast
8:35 PM 38.5 °F 33.4 °F 24.8 °F 58% 29.94 in 10.0 mi SE 6.9 mph - N/A   Overcast
8:55 PM 37.9 °F 33.5 °F 25.2 °F 60% 29.93 in 10.0 mi ESE 5.8 mph - N/A   Overcast
9:15 PM 38.5 °F 33.4 °F 25.0 °F 58% 29.92 in 10.0 mi ESE 6.9 mph - N/A   Overcast
9:35 PM 38.7 °F 32.9 °F 24.6 °F 57% 29.92 in 10.0 mi SE 8.1 mph - N/A   Overcast
9:55 PM 39.2 °F 34.2 °F 23.9 °F 54% 29.92 in 10.0 mi ESE 6.9 mph - N/A   Overcast
10:15 PM 39.2 °F 33.6 °F 23.7 °F 54% 29.92 in 10.0 mi SE 8.1 mph - N/A   Overcast
10:35 PM 37.9 °F 32.1 °F 23.7 °F 57% 29.92 in 10.0 mi SE 8.1 mph - N/A   Overcast
10:55 PM 37.4 °F 30.8 °F 23.0 °F 56% 29.91 in 10.0 mi SE 9.2 mph - N/A   Scattered Clouds
11:15 PM 37.4 °F 30.3 °F 22.1 °F 54% 29.91 in 10.0 mi SSE 10.4 mph - N/A   Clear
11:35 PM 36.7 °F 28.9 °F 22.5 °F 56% 29.90 in 10.0 mi SSE 11.5 mph - N/A   Clear
11:55 PM 37.6 °F 29.1 °F 23.0 °F 56% 29.89 in 10.0 mi SSE 13.8 mph - N/A   Scattered Clouds